• In Denmark
  • List of Countries
  • For 7 days
  • Water Temperature
  • Satellite Maps
  • Weather Map
  • Weather Widgets
  • user-avatar
    Login

    Hourly Weather Kanye

    Today, 21 May, Monday

    Time Temperature Precipitation Wind Pressure Humidity
    00:00 +13°C° 0 mm 4 mps 652 mmHg 74%
    01:00 +13°C° 0 mm 4 mps 652 mmHg 77%
    02:00 +12°C° 0 mm 4 mps 652 mmHg 81%
    03:00 +12°C° 0 mm 4 mps 651 mmHg 83%
    04:00 +12°C° 0 mm 3 mps 651 mmHg 86%
    05:00 +11°C° 0 mm 3 mps 651 mmHg 89%
    06:00 +12°C° 0 mm 4 mps 652 mmHg 86%
    07:00 +12°C° 0 mm 4 mps 652 mmHg 83%
    08:00 +13°C° 0 mm 4 mps 652 mmHg 81%
    09:00 +15°C° 0 mm 5 mps 653 mmHg 70%
    10:00 +19°C° 0 mm 5 mps 654 mmHg 60%
    11:00 +21°C° 0 mm 5 mps 654 mmHg 49%
    12:00 +23°C° 0 mm 5 mps 654 mmHg 44%
    13:00 +25°C° 0 mm 4 mps 654 mmHg 38%
    14:00 +26°C° 0 mm 4 mps 654 mmHg 33%
    15:00 +25°C° 0 mm 3 mps 653 mmHg 34%
    16:00 +24°C° 0 mm 2 mps 653 mmHg 35%
    17:00 +23°C° 0 mm 1 mps 652 mmHg 37%
    18:00 +23°C° 0 mm 1 mps 652 mmHg 38%
    19:00 +22°C° 0 mm 1 mps 652 mmHg 40%
    20:00 +21°C° 0 mm 1 mps 652 mmHg 42%
    21:00 +20°C° 0 mm 1 mps 652 mmHg 43%
    22:00 +20°C° 0 mm 1 mps 653 mmHg 44%
    23:00 +19°C° 0 mm 1 mps 653 mmHg 46%

    Tomorrow, 22 May, Tuesday

    Time Temperature Precipitation Wind Pressure Humidity
    00:00 +18°C° 0 mm 1 mps 652 mmHg 48%
    01:00 +16°C° 0 mm 1 mps 652 mmHg 51%
    02:00 +16°C° 0 mm 1 mps 652 mmHg 53%
    03:00 +15°C° 0 mm 1 mps 652 mmHg 56%
    04:00 +14°C° 0 mm 1 mps 652 mmHg 59%
    05:00 +13°C° 0 mm 1 mps 651 mmHg 62%
    06:00 +14°C° 0 mm 1 mps 652 mmHg 58%
    07:00 +15°C° 0 mm 1 mps 653 mmHg 55%
    08:00 +16°C° 0 mm 1 mps 654 mmHg 51%
    09:00 +20°C° 0 mm 1 mps 655 mmHg 44%
    10:00 +22°C° 0 mm 1 mps 655 mmHg 37%
    11:00 +25°C° 0 mm 1 mps 656 mmHg 30%
    12:00 +26°C° 0 mm 2 mps 656 mmHg 27%
    13:00 +27°C° 0 mm 3 mps 655 mmHg 24%
    14:00 +27°C° 0 mm 3 mps 655 mmHg 21%
    15:00 +27°C° 0 mm 3 mps 655 mmHg 21%
    16:00 +26°C° 0 mm 3 mps 654 mmHg 21%
    17:00 +25°C° 0 mm 3 mps 654 mmHg 21%
    18:00 +22°C° 0 mm 3 mps 654 mmHg 22%
    19:00 +20°C° 0 mm 3 mps 654 mmHg 23%
    20:00 +18°C° 0 mm 3 mps 653 mmHg 24%
    21:00 +17°C° 0 mm 2 mps 654 mmHg 24%
    22:00 +16°C° 0 mm 2 mps 654 mmHg 24%
    23:00 +16°C° 0 mm 2 mps 654 mmHg 24%

    Day after tomorrow, 23 May, Wednesday

    Time Temperature Precipitation Wind Pressure Humidity
    00:00 +15°C° 0 mm 2 mps 654 mmHg 25%
    01:00 +15°C° 0 mm 2 mps 654 mmHg 25%
    02:00 +14°C° 0 mm 1 mps 654 mmHg 26%
    03:00 +14°C° 0 mm 1 mps 654 mmHg 27%
    04:00 +13°C° 0 mm 1 mps 653 mmHg 28%
    05:00 +13°C° 0 mm 1 mps 653 mmHg 29%
    06:00 +14°C° 0 mm 1 mps 654 mmHg 29%
    07:00 +15°C° 0 mm 1 mps 655 mmHg 29%
    08:00 +16°C° 0 mm 1 mps 656 mmHg 28%
    09:00 +20°C° 0 mm 1 mps 656 mmHg 24%
    10:00 +23°C° 0 mm 1 mps 657 mmHg 20%
    11:00 +25°C° 0 mm 2 mps 658 mmHg 16%
    12:00 +26°C° 0 mm 2 mps 657 mmHg 15%
    13:00 +27°C° 0 mm 3 mps 657 mmHg 14%
    14:00 +28°C° 0 mm 3 mps 656 mmHg 13%
    15:00 +27°C° 0 mm 3 mps 656 mmHg 13%
    16:00 +26°C° 0 mm 3 mps 655 mmHg 14%
    17:00 +25°C° 0 mm 2 mps 655 mmHg 14%
    18:00 +23°C° 0 mm 2 mps 654 mmHg 15%
    19:00 +20°C° 0 mm 2 mps 654 mmHg 16%
    20:00 +17°C° 0 mm 2 mps 654 mmHg 17%
    21:00 +17°C° 0 mm 2 mps 654 mmHg 17%
    22:00 +16°C° 0 mm 2 mps 654 mmHg 18%
    23:00 +15°C° 0 mm 2 mps 654 mmHg 18%

    24 May, Thursday

    Time Temperature Precipitation Wind Pressure Humidity
    00:00 +15°C° 0 mm 2 mps 654 mmHg 19%
    01:00 +14°C° 0 mm 2 mps 653 mmHg 20%
    02:00 +14°C° 0 mm 1 mps 653 mmHg 21%
    03:00 +13°C° 0 mm 1 mps 653 mmHg 22%
    04:00 +13°C° 0 mm 1 mps 653 mmHg 23%
    05:00 +12°C° 0 mm 1 mps 653 mmHg 24%
    06:00 +13°C° 0 mm 1 mps 653 mmHg 24%
    07:00 +14°C° 0 mm 1 mps 654 mmHg 24%
    08:00 +14°C° 0 mm 0 mps 655 mmHg 25%
    09:00 +17°C° 0 mm 0 mps 655 mmHg 21%
    10:00 +22°C° 0 mm 1 mps 656 mmHg 17%
    11:00 +25°C° 0 mm 1 mps 657 mmHg 13%
    12:00 +25°C° 0 mm 1 mps 656 mmHg 12%
    13:00 +26°C° 0 mm 1 mps 655 mmHg 10%
    14:00 +27°C° 0 mm 1 mps 655 mmHg 9%
    15:00 +26°C° 0 mm 1 mps 654 mmHg 11%
    16:00 +25°C° 0 mm 1 mps 654 mmHg 12%
    17:00 +24°C° 0 mm 1 mps 653 mmHg 13%
    18:00 +22°C° 0 mm 1 mps 653 mmHg 15%
    19:00 +19°C° 0 mm 1 mps 653 mmHg 16%
    20:00 +16°C° 0 mm 1 mps 653 mmHg 17%
    21:00 +15°C° 0 mm 1 mps 653 mmHg 19%
    22:00 +15°C° 0 mm 1 mps 653 mmHg 22%
    23:00 +14°C° 0 mm 1 mps 652 mmHg 24%

    25 May, Friday

    Time Temperature Precipitation Wind Pressure Humidity
    00:00 +13°C° 0 mm 1 mps 652 mmHg 25%
    01:00 +13°C° 0 mm 1 mps 652 mmHg 27%
    02:00 +11°C° 0 mm 0 mps 651 mmHg 28%
    03:00 +11°C° 0 mm 0 mps 651 mmHg 30%
    04:00 +10°C° 0 mm 0 mps 651 mmHg 32%
    05:00 +10°C° 0 mm 0 mps 651 mmHg 34%
    06:00 +11°C° 0 mm 0 mps 652 mmHg 31%
    07:00 +13°C° 0 mm 0 mps 652 mmHg 28%
    08:00 +14°C° 0 mm 0 mps 653 mmHg 25%
    09:00 +19°C° 0 mm 1 mps 654 mmHg 21%
    10:00 +20°C° 0 mm 2 mps 655 mmHg 17%
    11:00 +24°C° 0 mm 2 mps 656 mmHg 13%
    12:00 +25°C° 0 mm 3 mps 655 mmHg 12%
    13:00 +26°C° 0 mm 3 mps 655 mmHg 11%
    14:00 +27°C° 0 mm 3 mps 654 mmHg 10%
    15:00 +26°C° 0 mm 3 mps 654 mmHg 11%
    16:00 +25°C° 0 mm 2 mps 653 mmHg 12%
    17:00 +24°C° 0 mm 2 mps 653 mmHg 13%
    18:00 +22°C° 0 mm 1 mps 652 mmHg 16%
    19:00 +19°C° 0 mm 1 mps 652 mmHg 18%
    20:00 +16°C° 0 mm 1 mps 651 mmHg 21%
    21:00 +15°C° 0 mm 1 mps 651 mmHg 22%
    22:00 +15°C° 0 mm 1 mps 651 mmHg 22%
    23:00 +13°C° 0 mm 0 mps 651 mmHg 23%

    26 May, Saturday

    Time Temperature Precipitation Wind Pressure Humidity
    00:00 +14°C° 0 mm 1 mps 651 mmHg 22%
    01:00 +14°C° 0 mm 1 mps 651 mmHg 21%
    02:00 +14°C° 0 mm 1 mps 651 mmHg 20%
    03:00 +14°C° 0 mm 2 mps 651 mmHg 22%
    04:00 +14°C° 0 mm 2 mps 651 mmHg 24%
    05:00 +13°C° 0 mm 2 mps 651 mmHg 27%
    06:00 +13°C° 0 mm 3 mps 651 mmHg 31%
    07:00 +13°C° 0 mm 3 mps 652 mmHg 35%
    08:00 +14°C° 0 mm 3 mps 653 mmHg 39%
    09:00 +18°C° 0 mm 4 mps 653 mmHg 34%
    10:00 +21°C° 0 mm 4 mps 654 mmHg 29%
    11:00 +23°C° 0 mm 5 mps 655 mmHg 25%
    12:00 +24°C° 0 mm 6 mps 654 mmHg 22%
    13:00 +26°C° 0 mm 6 mps 654 mmHg 20%
    14:00 +27°C° 0 mm 7 mps 653 mmHg 17%
    15:00 +27°C° 0 mm 6 mps 653 mmHg 18%
    16:00 +26°C° 0 mm 5 mps 653 mmHg 19%
    17:00 +25°C° 0 mm 4 mps 653 mmHg 19%
    18:00 +22°C° 0 mm 4 mps 653 mmHg 22%
    19:00 +20°C° 0 mm 3 mps 652 mmHg 25%
    20:00 +17°C° 0 mm 3 mps 652 mmHg 29%
    21:00 +16°C° 0 mm 3 mps 652 mmHg 29%
    22:00 +14°C° 0 mm 3 mps 653 mmHg 29%
    23:00 +13°C° 0 mm 3 mps 653 mmHg 29%
    Show more